Time,TemperatureF,DewpointF,PressureIn,WindDirection,WindDirectionDegrees,WindSpeedMPH,WindSpeedGustMPH,Humidity,HourlyPrecipIn,Conditions,Clouds,dailyrainin,SolarRadiationWatts/m^2,SoftwareType,DateUTC
2013-08-22 00:02:00,59.0,53.0,-100.00,ESE,103,2.0,4.0,81,0.00,,,0.00,0.000000,,2013-08-22 07:02:00,
2013-08-22 00:42:00,56.0,51.0,-100.00,NW,306,0.0,4.0,84,0.00,,,0.00,0.000000,,2013-08-22 07:42:00,
2013-08-22 00:52:00,56.0,51.0,-100.00,NW,306,0.0,4.0,84,0.00,,,0.00,0.000000,,2013-08-22 07:52:00,
2013-08-22 01:03:00,56.0,51.0,-100.00,NW,306,0.0,4.0,84,0.00,,,0.00,0.000000,,2013-08-22 08:03:00,
2013-08-22 01:43:00,54.0,50.0,-100.00,SE,128,0.0,0.0,87,0.00,,,-99.99,0.000000,,2013-08-22 08:43:00,
2013-08-22 01:53:00,54.0,50.0,-100.00,SE,128,0.0,0.0,87,0.00,,,-99.99,0.000000,,2013-08-22 08:53:00,
2013-08-22 02:01:00,54.0,50.0,-100.00,SE,128,0.0,0.0,87,0.00,,,-99.99,0.000000,,2013-08-22 09:01:00,
2013-08-22 02:43:00,52.0,49.0,-100.00,ENE,76,0.0,2.0,91,0.00,,,0.00,0.000000,,2013-08-22 09:43:00,
2013-08-22 02:54:00,52.0,49.0,-100.00,ENE,76,0.0,2.0,91,0.00,,,0.00,0.000000,,2013-08-22 09:54:00,
2013-08-22 03:03:00,52.0,49.0,-100.00,ENE,76,0.0,2.0,91,0.00,,,0.00,0.000000,,2013-08-22 10:03:00,
2013-08-22 03:04:00,51.0,49.0,-100.00,SW,216,0.0,2.0,92,0.00,,,0.00,0.000000,,2013-08-22 10:04:00,
2013-08-22 03:42:00,51.0,49.0,-100.00,SW,216,0.0,2.0,92,0.00,,,0.00,0.000000,,2013-08-22 10:42:00,
2013-08-22 05:42:00,49.0,48.0,-100.00,South,171,0.0,0.0,95,0.00,,,0.00,0.000000,,2013-08-22 12:42:00,
2013-08-22 05:52:00,49.0,48.0,-100.00,South,171,0.0,0.0,95,0.00,,,0.00,0.000000,,2013-08-22 12:52:00,
2013-08-22 06:02:00,49.0,48.0,-100.00,South,171,0.0,0.0,95,0.00,,,0.00,0.000000,,2013-08-22 13:02:00,
2013-08-22 06:42:00,48.0,47.0,-100.00,SW,218,0.0,0.0,95,0.00,,,0.00,0.000000,,2013-08-22 13:42:00,
2013-08-22 06:52:00,48.0,47.0,-100.00,SW,218,0.0,0.0,95,0.00,,,0.00,0.000000,,2013-08-22 13:52:00,
2013-08-22 07:01:00,48.0,47.0,-100.00,SW,218,0.0,0.0,95,0.00,,,0.00,0.000000,,2013-08-22 14:01:00,
2013-08-22 07:42:00,48.0,47.0,-100.00,SW,225,0.0,2.0,95,0.00,,,0.00,6.000000,,2013-08-22 14:42:00,
2013-08-22 07:52:00,48.0,47.0,-100.00,SW,225,0.0,2.0,95,0.00,,,0.00,6.000000,,2013-08-22 14:52:00,
2013-08-22 08:01:00,48.0,47.0,-100.00,SW,225,0.0,2.0,95,0.00,,,0.00,6.000000,,2013-08-22 15:01:00,
2013-08-22 08:04:00,56.0,49.0,-100.00,ENE,75,2.0,3.0,78,0.00,,,0.00,132.000000,,2013-08-22 15:04:00,
2013-08-22 08:43:00,56.0,49.0,-100.00,ENE,75,2.0,3.0,78,0.00,,,0.00,132.000000,,2013-08-22 15:43:00,
2013-08-22 08:55:00,56.0,49.0,-100.00,ENE,75,2.0,3.0,78,0.00,,,0.00,132.000000,,2013-08-22 15:55:00,
2013-08-22 09:25:00,63.0,51.0,-100.00,NE,42,2.0,5.0,65,0.00,,,0.00,351.000000,,2013-08-22 16:25:00,
2013-08-22 09:34:00,63.0,51.0,-100.00,NE,42,2.0,5.0,65,0.00,,,0.00,351.000000,,2013-08-22 16:34:00,
2013-08-22 09:43:00,63.0,51.0,-100.00,NE,42,2.0,5.0,65,0.00,,,0.00,351.000000,,2013-08-22 16:43:00,
2013-08-22 09:54:00,63.0,51.0,-100.00,NE,42,2.0,5.0,65,0.00,,,0.00,351.000000,,2013-08-22 16:54:00,
2013-08-22 10:02:00,63.0,51.0,-100.00,NE,42,2.0,5.0,65,0.00,,,0.00,351.000000,,2013-08-22 17:02:00,
2013-08-22 10:24:00,67.0,53.0,-100.00,East,87,6.0,11.0,60,0.00,,,0.00,546.000000,,2013-08-22 17:24:00,
2013-08-22 10:33:00,67.0,53.0,-100.00,East,87,6.0,11.0,60,0.00,,,0.00,546.000000,,2013-08-22 17:33:00,
2013-08-22 10:43:00,67.0,53.0,-100.00,East,87,6.0,11.0,60,0.00,,,0.00,546.000000,,2013-08-22 17:43:00,
2013-08-22 10:53:00,67.0,53.0,-100.00,East,87,6.0,11.0,60,0.00,,,0.00,546.000000,,2013-08-22 17:53:00,
2013-08-22 11:02:00,67.0,53.0,-100.00,East,87,6.0,11.0,60,0.00,,,0.00,546.000000,,2013-08-22 18:02:00,
2013-08-22 11:43:00,70.0,54.0,-100.00,East,95,11.0,18.0,56,-99.99,,,0.00,719.000000,,2013-08-22 18:43:00,
2013-08-22 11:52:00,70.0,54.0,-100.00,East,95,11.0,18.0,56,-99.99,,,0.00,719.000000,,2013-08-22 18:52:00,
2013-08-22 12:02:00,70.0,54.0,-100.00,East,95,11.0,18.0,56,-99.99,,,0.00,719.000000,,2013-08-22 19:02:00,
2013-08-22 12:22:00,74.0,52.0,-100.00,East,96,9.0,17.0,47,0.00,,,0.00,848.000000,,2013-08-22 19:22:00,
2013-08-22 12:33:00,74.0,52.0,-100.00,East,96,9.0,17.0,47,0.00,,,0.00,848.000000,,2013-08-22 19:33:00,
2013-08-22 12:42:00,74.0,52.0,-100.00,East,96,9.0,17.0,47,0.00,,,0.00,848.000000,,2013-08-22 19:42:00,
2013-08-22 12:53:00,74.0,52.0,-100.00,East,96,9.0,17.0,47,0.00,,,0.00,848.000000,,2013-08-22 19:53:00,
2013-08-22 13:02:00,74.0,52.0,-100.00,East,96,9.0,17.0,47,0.00,,,0.00,848.000000,,2013-08-22 20:02:00,
2013-08-22 13:23:00,77.0,52.0,-100.00,East,98,11.0,19.0,42,0.00,,,0.00,911.000000,,2013-08-22 20:23:00,
2013-08-22 13:32:00,77.0,52.0,-100.00,East,98,11.0,19.0,42,0.00,,,0.00,911.000000,,2013-08-22 20:32:00,
2013-08-22 13:42:00,77.0,52.0,-100.00,East,98,11.0,19.0,42,0.00,,,0.00,911.000000,,2013-08-22 20:42:00,
2013-08-22 13:52:00,77.0,52.0,-100.00,East,98,11.0,19.0,42,0.00,,,0.00,911.000000,,2013-08-22 20:52:00,
2013-08-22 14:02:00,77.0,52.0,-100.00,East,98,11.0,19.0,42,0.00,,,0.00,911.000000,,2013-08-22 21:02:00,
2013-08-22 14:22:00,82.0,53.0,-100.00,East,91,8.0,17.0,37,0.00,,,0.00,919.000000,,2013-08-22 21:22:00,
2013-08-22 14:34:00,82.0,53.0,-100.00,East,91,8.0,17.0,37,0.00,,,0.00,919.000000,,2013-08-22 21:34:00,
2013-08-22 18:22:00,80.0,51.0,-100.00,ESE,102,10.0,15.0,37,-99.99,,,0.00,346.000000,,2013-08-23 01:22:00,
2013-08-22 18:33:00,80.0,51.0,-100.00,ESE,102,10.0,15.0,37,-99.99,,,0.00,346.000000,,2013-08-23 01:33:00,
2013-08-22 18:42:00,80.0,51.0,-100.00,ESE,102,10.0,15.0,37,-99.99,,,0.00,346.000000,,2013-08-23 01:42:00,
2013-08-22 19:23:00,75.0,51.0,-100.00,East,84,6.0,16.0,43,-99.99,,,0.00,53.000000,,2013-08-23 02:23:00,
2013-08-22 19:33:00,75.0,51.0,-100.00,East,84,6.0,16.0,43,-99.99,,,0.00,53.000000,,2013-08-23 02:33:00,
2013-08-22 19:43:00,75.0,51.0,-100.00,East,84,6.0,16.0,43,-99.99,,,0.00,53.000000,,2013-08-23 02:43:00,
2013-08-22 19:52:00,75.0,51.0,-100.00,East,84,6.0,16.0,43,-99.99,,,0.00,53.000000,,2013-08-23 02:52:00,
2013-08-22 20:02:00,75.0,51.0,-100.00,East,84,6.0,16.0,43,-99.99,,,0.00,53.000000,,2013-08-23 03:02:00,
2013-08-22 20:04:00,70.0,52.0,-100.00,East,86,4.0,14.0,53,-99.99,,,0.00,9.000000,,2013-08-23 03:04:00,
2013-08-22 20:44:00,70.0,52.0,-100.00,East,86,4.0,14.0,53,-99.99,,,0.00,9.000000,,2013-08-23 03:44:00,
2013-08-22 20:55:00,70.0,52.0,-100.00,East,86,4.0,14.0,53,-99.99,,,0.00,9.000000,,2013-08-23 03:55:00,
2013-08-22 21:43:00,64.0,53.0,-100.00,ESE,104,4.0,11.0,67,0.00,,,0.00,0.000000,,2013-08-23 04:43:00,
2013-08-22 21:54:00,64.0,53.0,-100.00,ESE,104,4.0,11.0,67,0.00,,,0.00,0.000000,,2013-08-23 04:54:00,
2013-08-22 22:03:00,64.0,53.0,-100.00,ESE,104,4.0,11.0,67,0.00,,,0.00,0.000000,,2013-08-23 05:03:00,
2013-08-22 22:42:00,61.0,53.0,-100.00,East,96,0.0,5.0,74,0.00,,,0.00,0.000000,,2013-08-23 05:42:00,
2013-08-22 22:52:00,61.0,53.0,-100.00,East,96,0.0,5.0,74,0.00,,,0.00,0.000000,,2013-08-23 05:52:00,
2013-08-22 23:02:00,61.0,53.0,-100.00,East,96,0.0,5.0,74,0.00,,,0.00,0.000000,,2013-08-23 06:02:00,
2013-08-22 23:42:00,58.0,52.0,-100.00,East,90,0.0,5.0,80,0.00,,,0.00,0.000000,,2013-08-23 06:42:00,
2013-08-22 23:52:00,58.0,52.0,-100.00,East,90,0.0,5.0,80,0.00,,,0.00,0.000000,,2013-08-23 06:52:00,